Regional Weather Roundup
Issued by NWS

Home | Current Version | Previous Version | Graphics & Text | Print | Product List | Glossary On
Versions: 1 2 3 4 5 6 7 8 9 10 11 12 13 14 15 16 17 18 19 20 21 22 23 24 25 26 27 28 29 30 31 32 33 34 35 36 37 38 39 40 41 42 43 44 45 46 47 48 49 50
000
ASUS43 KDMX 211007
RWRIA

WEATHER ROUNDUP FOR IOWA
NATIONAL WEATHER SERVICE DES MOINES IA
500 AM CDT SUN SEP 21 2014

NOTE: "FAIR" INDICATES FEW OR NO CLOUDS BELOW 12,000 FEET WITH NO
SIGNIFICANT WEATHER AND/OR OBSTRUCTIONS TO VISIBILITY.

* - THESE STATIONS ARE NOT NWS STATIONS...THUS NOT UNDER NWS
QUALITY CONTROL.  THEY ALSO DO NOT REPORT WEATHER SUCH
AS PRECIPITATION OR FOG.

IAZ001>003-012>014-020>022-031>034-043>046-211100-
   NORTHWEST IOWA

CITY           SKY/WX    TMP DP  RH WIND       PRES   REMARKS
CARROLL *      CLEAR     54  48  82 NW8       30.04S
CHEROKEE *     CLEAR     52  48  87 NW6       30.07R
DENISON *      CLEAR     52  50  93 W6        30.06R
LE MARS *        N/A     50  46  87 NW6       30.09S
ORANGE CITY *  CLEAR     50  45  81 NW8       30.08R
SHELDON *      CLEAR     52  46  82 NW8       30.06R
SIOUX CITY     CLEAR     51  47  86 CALM      30.10R
SPENCER        CLEAR     50  45  83 NW8       30.05R
STORM LAKE *   CLEAR     52  48  87 W10G17    30.05S
$$

IAZ055>058-069>071-079>083-090>094-211100-
   SOUTHWEST IOWA

CITY           SKY/WX    TMP DP  RH WIND       PRES   REMARKS
ATLANTIC *     CLEAR     54  52  94 S5        30.07R
AUDUBON *      CLEAR     54  46  76 CALM      30.07R
COUNCIL BLFS *   N/A     55  54  94 W6        30.09R
CRESTON *      CLEAR     54  50  87 W9        30.07R
HARLAN  *      CLEAR     54  52  94 W8        30.11R
LAMONI         CLEAR     52  50  93 W8        30.04S
RED OAK *      CLEAR     52  52 100 CALM      30.09S
SHENANDOAH *     N/A     52  52 100 SW5       30.10S
$$

IAZ047>049-059>061-072>074-084-211100-
   CENTRAL IOWA

CITY           SKY/WX    TMP DP  RH WIND       PRES   REMARKS
AMES           CLEAR     57  48  72 NW9       29.99R
ANKENY *       CLEAR     55  52  88 W10       29.99R
CHARITON *     CLEAR     55  52  88 W9        30.02R
DES MOINES     CLEAR     57  50  77 W10       30.00R
GRINNELL*      CLEAR     55  50  82 W9        29.98R
KNOXVILLE *    CLEAR     54  50  87 W7        29.99R
MARSHALLTOWN   CLEAR     55  50  83 W10       29.96R
PELLA *        CLEAR     57  52  82 W7        30.00S
PERRY *          N/A     55  50  82 W8        30.02R
$$

IAZ004>006-015-016-023>025-035-036-211100-
   NORTH CENTRAL IOWA

CITY           SKY/WX    TMP DP  RH WIND       PRES   REMARKS
ALGONA *       CLEAR     52  48  87 W7        30.01R
CLARION *        N/A     52  48  87 NW10      29.99R
ESTHERVILLE    CLEAR     53  45  74 NW10      30.02R
FORT DODGE *   CLEAR     55  45  67 W7        30.02R
MASON CITY     CLEAR     52  48  86 W16       29.97R
FOREST CITY *  CLEAR     52  48  87 NW10      29.97R
IOWA FALLS *     N/A     54  48  82 W10       29.99R
$$

IAZ007>011-017>019-026>030-037>042-050>054-066-211100-
   NORTHEAST IOWA

CITY           SKY/WX    TMP DP  RH WIND       PRES   REMARKS
CEDAR RAPIDS   CLEAR     55  53  93 W13       29.92R
CHARLES CITY * CLEAR     54  50  87 NW13G18   29.93R
CLINTON *      CLEAR     54  50  87 W9        29.90S
DECORAH *      CLEAR     54  50  87 W10G18    29.86S
DUBUQUE        CLEAR     54  52  93 W15       29.86R
MONTICELLO *   CLEAR     55  54  94 W9        29.89R
OELWEIN *      CLEAR     55  52  88 W13       29.91R
WATERLOO       CLEAR     55  50  83 W10       29.92R
$$

IAZ064-065-067-068-078-211100-
   EAST CENTRAL IOWA

CITY           SKY/WX    TMP DP  RH WIND       PRES   REMARKS
DAVENPORT      CLEAR     53  50  89 W8        29.90S
IOWA CITY        N/A     55  53  93 W8        29.94R
MT. PLEASANT * CLEAR     55  54  94 SW6       29.96S
MUSCATINE *    CLEAR     55  52  88 W8        29.93S
QUAD CITIES    CLEAR     56  51  84 W8        29.90S
$$

IAZ062-063-075>077-085>089-095>099-211100-
   SOUTHEAST IOWA

CITY           SKY/WX    TMP DP  RH WIND       PRES   REMARKS
BURLINGTON     CLEAR     56  53  90 W6        29.95S
FAIRFIELD *    CLEAR     54  52  94 W7        29.97S
FORT MADISON * CLEAR     57  54  88 W7        29.97S
KEOKUK *       CLEAR     55  52  88 W6        29.97R
OSKALOOSA *      N/A     52  52 100 W7        29.98S
CENTERVILLE *  CLEAR     54  52  94 W7        30.02S
OTTUMWA        CLEAR     54  51  90 W8        29.98R
WASHINGTON *   CLEAR     55  54  94 W8        29.95S
$$

ABBREVIATIONS USED IN REMARKS
   TC - TEMPERATURES IN CELSIUS
  WCI - WIND CHILL INDEX
   HX - HEAT INDEX
  VSB - VISIBILITY
$$




USA.gov is the U.S. government's official web portal to all federal, state and local government web resources and services.